Regional Weather Roundup
Issued by NWS

Home | Current Version | Previous Version | Text Only | Print | Product List | Glossary Off
Versions: 1 2 3 4 5 6 7 8 9 10 11 12 13 14 15 16 17 18 19 20 21 22 23 24 25 26 27 28 29 30 31 32 33 34 35 36 37 38 39 40 41 42 43 44 45 46 47 48 49 50

865
ASUS43 KLMK 252002
RWRKY
KENTUCKY REGIONAL WEATHER ROUNDUP
NATIONAL WEATHER SERVICE LOUISVILLE KY
400 PM EDT FRI MAY 25 2018

NOTE "FAIR" INDICATES FEW OR NO CLOUDS BELOW 12,000 FEET
WITH NO SIGNIFICANT WEATHER AND/OR OBSTRUCTIONS TO VISIBILITY.

KYZ001>023-026-027-061>063-070>075-252100-
WESTERN AND SOUTH CENTRAL KENTUCKY

CITY           SKY/WX    TMP DP  RH WIND       PRES   REMARKS
PADUCAH        LGT RAIN  73  68  84 SE9       29.91F
HENDERSON      NOT AVBL
OWENSBORO      FAIR      88  66  48 SW9       29.90F HX  90
HOPKINSVILLE   FAIR      87  63  44 S8        29.91F
BOWLING GREEN  FAIR      89  62  40 W8        29.92F
GLASGOW        NOT AVBL
$$

KYZ024-025-028>034-038-045-046-053-252100-
NORTH CENTRAL KENTUCKY

CITY           SKY/WX    TMP DP  RH WIND       PRES   REMARKS
LOUISVILLE/SDF FAIR      87  59  38 SW9       29.90F
LOUISVILLE/LOU FAIR      87  60  40 VRB3      29.91F
FORT KNOX      FAIR      87  59  38 SW9       29.92F
$$

KYZ035>037-039>044-047>052-055>060-089>105-252100-
NORTHEAST KENTUCKY

CITY           SKY/WX    TMP DP  RH WIND       PRES   REMARKS
LEXINGTON      FAIR      85  61  44 W7        29.95F
COVINGTON      FAIR      84  55  36 SW3       29.94F
FRANKFORT      FAIR      85  61  44 SW7       29.93F
$$

KYZ054-064>069-076>088-106>120-252100-
SOUTHEAST KENTUCKY

CITY           SKY/WX    TMP DP  RH WIND       PRES   REMARKS
JACKSON        FAIR      84  65  52 SE3       29.97F
LONDON         FAIR      85  65  51 SW5       29.96F
SOMERSET       NOT AVBL
MIDDLESBORO    FAIR      86  67  52 S3        29.97F
MONTICELLO     FAIR      88  65  46 N9G17     29.96F HX  90
$$





USA.gov is the U.S. government's official web portal to all federal, state and local government web resources and services.